Home > Weather > Köniz > Past weeks

Flag for Switzerland Weather for the Past 2 Weeks in Köniz, Bern, Switzerland

Now
50 °F

Passing clouds.


Feels Like: 46 °F
Forecast: 32 / 36 °F
Wind: 10 mph from Southwest

Location: Bern / Belp

Current Time: Feb 9, 2016 at 3:35:54 AM

Latest Report: Feb 9, 2016 at 2:50 AM


Visibility: N/A

Pressure: 29.86 "Hg (27.84 "Hg at 579m altitude)

Humidity: 58%

Dew point: 36 °F

Location of KönizLocation

Historic Weather in Köniz — Graph

°F

Köniz Temperature Yesterday

Maximum temperature yesterday: 55 °F (at 2:20 PM)
Minimum temperature yesterday: 28 °F (at 2:50 AM)
Average temperature yesterday: 42 °F

High & Low Weather Summary for the Past Weeks

 TemperatureHumidityPressure
High59 °F (Feb 1, 11:50 AM)100% (Jan 25, 1:20 AM)30.51 "Hg (Jan 25, 1:20 AM)
Low25 °F (Jan 25, 7:20 AM)51% (Feb 8, 1:50 PM)29.62 "Hg (Feb 7, 7:50 AM)
Average41 °F88%30.22 "Hg
* Reported Jan 25 1:20 AM — Feb 9 1:50 AM, Köniz, Weather by CustomWeather, © 2016

Note: Actual official high and low records may vary slightly from our data, if they occured in-between our weather recording intervals... More about our weather records

Advertising

Köniz Weather History for the Previous 24 Hours

 ConditionsComfort  
Time TempWeatherWind HumidityBarometerVisibility
1:50 AM
Tue, Feb 9
46 °FPassing clouds.5 mph82%29.89 "HgN/A
1:20 AM45 °FSprinkles. Passing clouds.6 mph93%29.89 "HgN/A
12:50 AM45 °FSprinkles. Passing clouds.5 mph93%29.89 "Hg4 mi
12:20 AM45 °FSprinkles. Partly cloudy.9 mph87%29.89 "HgN/A
11:20 PM
Mon, Feb 8
48 °FPartly cloudy.10 mph71%29.92 "HgN/A
10:50 PM48 °FSprinkles. Partly cloudy.9 mph71%29.89 "HgN/A
10:20 PM48 °FPartly cloudy.17 mph76%29.89 "HgN/A
9:50 PM48 °FSprinkles. Passing clouds.10 mph82%29.89 "HgN/A
9:20 PM50 °FPassing clouds.15 mph71%29.86 "HgN/A
8:50 PM50 °FPartly cloudy.8 mph71%29.89 "HgN/A
8:20 PM50 °FPassing clouds.12 mph71%29.86 "HgN/A
7:50 PM50 °FPassing clouds.10 mph71%29.86 "HgN/A
7:20 PM50 °FLight rain. Partly cloudy.8 mph76%29.83 "HgN/A
6:50 PM48 °FSprinkles. Partly cloudy.6 mph82%29.83 "HgN/A
6:20 PM52 °FSprinkles. Partly cloudy.8 mph67%29.80 "HgN/A
5:50 PM52 °FSprinkles. Partly cloudy.13 mph62%29.80 "Hg6 mi
5:20 PM52 °FBroken clouds.16 mph62%29.77 "HgN/A
4:50 PM54 °FLight rain. Broken clouds.15 mph58%29.77 "HgN/A
4:20 PM55 °FScattered clouds.15 mph51%29.74 "HgN/A
3:50 PM54 °FScattered clouds.10 mph58%29.74 "HgN/A
3:20 PM55 °FPartly sunny.13 mph51%29.71 "HgN/A
2:50 PM55 °FPartly sunny.10 mph51%29.74 "HgN/A
2:20 PM55 °FPartly sunny.15 mph51%29.74 "HgN/A
1:50 PM54 °FScattered clouds.14 mph51%29.77 "HgN/A
1:20 PM52 °FScattered clouds.6 mph58%29.77 "HgN/A
12:50 PM50 °FScattered clouds.13 mph71%29.77 "HgN/A
12:20 PM48 °FScattered clouds.10 mph71%29.77 "HgN/A
11:50 AM43 °FPartly sunny.6 mph87%29.77 "HgN/A
11:20 AM41 °FScattered clouds.6 mph87%29.80 "HgN/A
10:50 AM39 °FPartly sunny.8 mph100%29.80 "HgN/A
10:20 AM37 °FPartly sunny.2 mph100%29.83 "HgN/A
9:50 AM36 °FPartly sunny.5 mph100%29.83 "HgN/A
9:20 AM34 °FPartly sunny.6 mph100%29.86 "HgN/A
8:50 AM34 °FBroken clouds.2 mph100%29.86 "Hg4 mi
8:20 AM32 °FBroken clouds.2 mph100%29.86 "Hg3 mi
7:50 AM32 °FBroken clouds.2 mph100%29.86 "Hg5 mi
7:20 AM32 °FPartly cloudy.7 mph100%29.86 "HgN/A
6:50 AM32 °FPartly cloudy.2 mph100%29.89 "HgN/A
6:20 AM32 °FPartly cloudy.5 mph100%29.89 "HgN/A
5:50 AM30 °FPartly cloudy.2 mph100%29.89 "HgN/A
5:20 AM32 °FIce fog.1 mph100%29.89 "Hg3 mi
4:20 AM30 °FIce fog.2 mph100%29.89 "Hg1 mi
3:50 AM30 °FIce fog.3 mph100%29.92 "Hg0 mi
Weather by CustomWeather, © 2016

See weather overviewHow to use our weather pages